K5BV Weather Reports


Display with metric or nautical units.
time (UTC)temp
F
wind
direction
speed
MPH
gust
MPH
rain 1hr
in
rain 24hr
in
rain mn
in
humidity
%
barometer
mb
20210126144316 66 61 3.0 9.0 0.00 0.00 0.00 75 1009.7
20210126141310 66 31 6.0 12.0 0.00 0.00 0.00 76 1009.1
20210126135309 66 27 5.0 14.0 0.00 0.00 0.00 75 1009.2
20210126132308 66 23 5.0 14.0 0.00 0.00 0.00 76 1009.0
20210126131307 65 23 7.0 13.0 0.00 0.00 0.00 76 1009.1
20210126130305 66 38 6.0 10.0 0.00 0.00 0.00 75 1008.9
20210126115322 67 28 4.0 10.0 0.00 0.00 0.00 70 1008.2
20210126112306 68 28 5.0 12.0 0.00 0.00 0.00 70 1008.1
20210126111305 68 41 6.0 12.0 0.00 0.00 0.00 69 1008.1
20210126110309 68 29 6.0 14.0 0.00 0.00 0.00 69 1008.2
20210126105312 67 34 7.0 15.0 0.00 0.00 0.00 70 1008.2
20210126103307 67 30 7.0 12.0 0.00 0.00 0.00 69 1008.0
20210126102310 67 31 6.0 10.0 0.00 0.00 0.00 69 1008.0
20210126100305 67 29 5.0 12.0 0.00 0.00 0.00 67 1007.7
20210126092309 68 24 7.0 14.0 0.00 0.00 0.00 64 1008.2
20210126091306 68 34 6.0 13.0 0.00 0.00 0.00 65 1008.1
20210126090307 68 23 6.0 12.0 0.00 0.00 0.00 66 1008.1
20210126080304 68 30 6.0 14.0 0.00 0.00 0.00 70 1008.5
20210126073307 69 17 10.0 15.0 0.00 0.00 0.00 65 1008.5
20210126065305 69 13 7.0 15.0 0.00 0.00 0.00 60 1008.8
20210126063307 70 12 7.0 15.0 0.00 0.00 0.00 59 1008.8
20210126061306 70 18 6.0 15.0 0.00 0.00 0.00 58 1008.7
20210126052314 70 7 7.0 14.0 0.00 0.00 0.00 56 1008.3
20210126043308 70 1 6.0 12.0 0.00 0.00 0.00 60 1007.7
20210126042307 70 356 6.0 13.0 0.00 0.00 0.00 62 1007.8
20210126041306 70 344 6.0 10.0 0.00 0.00 0.00 64 1007.7
20210126040306 70 2 5.0 12.0 0.00 0.00 0.00 66 1007.5
20210126033305 70 0 6.0 8.0 0.00 0.00 0.00 73 1007.6
20210126032305 70 349 5.0 10.0 0.00 0.00 0.00 74 1007.4
20210126025305 71 12 3.0 9.0 0.00 0.00 0.00 78 1007.3
20210126022305 71 12 5.0 9.0 0.00 0.00 0.00 80 1007.0
20210126020311 71 21 5.0 9.0 0.00 0.00 0.00 82 1006.7
20210126015306 70 15 5.0 10.0 0.00 0.00 0.00 83 1006.5
20210126010307 71 20 3.0 9.0 0.00 0.00 0.00 88 1005.9
20210126004304 71 359 3.0 6.0 0.00 0.00 0.00 87 1005.7
20210126002305 71 58 0.0 0.0 0.00 0.00 0.00 87 1005.6
20210126001304 72 58 0.0 0.0 0.00 0.00 0.00 87 1005.4
20210125235307 73 4 0.0 1.0 0.00 0.00 0.00 86 1005.0
20210125225306 73 71 1.0 7.0 0.00 0.00 0.00 88 1004.4
20210125220306 74 141 2.0 7.0 0.00 0.00 0.00 84 1003.9
20210125215306 75 113 3.0 6.0 0.00 0.00 0.00 84 1003.8
20210125214305 74 130 3.0 7.0 0.00 0.00 0.00 84 1003.7
20210125212306 75 141 5.0 9.0 0.00 0.00 0.00 82 1003.8
20210125202306 78 149 5.0 8.0 0.00 0.00 0.00 75 1004.0
20210125195306 77 144 5.0 8.0 0.00 0.00 0.00 79 1004.3
20210125193305 79 137 4.0 7.0 0.00 0.00 0.00 73 1004.4
20210125190307 77 139 5.0 7.0 0.00 0.00 0.00 76 1004.9
20210125182307 75 148 2.0 6.0 0.00 0.00 0.00 82 1005.7
20210125181304 76 97 0.0 0.0 0.00 0.00 0.00 80 1005.9
20210125174309 74 61 0.0 0.0 0.00 0.00 0.00 86 1006.4
20210125170306 73 110 2.0 6.0 0.00 0.00 0.00 88 1007.0
20210125165310 73 339 0.0 5.0 0.00 0.00 0.00 90 1007.0
20210125163304 72 322 0.0 0.0 0.00 0.00 0.00 91 1007.2
20210125160321 70 186 2.0 5.0 0.00 0.00 0.00 92 1006.8
20210125154307 69 224 5.0 8.0 0.00 0.00 0.00 92 1006.6
20210125153308 69 201 5.0 8.0 0.00 0.00 0.00 92 1006.3
20210125152307 69 198 5.0 8.0 0.00 0.00 0.00 92 1006.2